Regional Weather Roundup
Issued by NWS

Home | Current Version | Previous Version | Text Only | Print | Product List | Glossary Off
Versions: 1 2 3 4 5 6 7 8 9 10 11 12 13 14 15 16 17 18 19 20 21 22 23 24 25 26 27 28 29 30 31 32 33 34 35 36 37 38 39 40 41 42 43 44 45 46 47 48 49 50

000
ASUS43 KLMK 300102
RWRKY
KENTUCKY REGIONAL WEATHER ROUNDUP
NATIONAL WEATHER SERVICE LOUISVILLE KY
900 PM EDT FRI APR 29 2016

NOTE "FAIR" INDICATES FEW OR NO CLOUDS BELOW 12,000 FEET
WITH NO SIGNIFICANT WEATHER AND/OR OBSTRUCTIONS TO VISIBILITY.

KYZ001>023-026-027-061>063-070>075-300200-
WESTERN AND SOUTH CENTRAL KENTUCKY

CITY           SKY/WX    TMP DP  RH WIND       PRES   REMARKS
PADUCAH        CLOUDY    61  58  90 NE6       29.93S
HENDERSON      CLOUDY    64  52  63 NE9       29.98R
OWENSBORO      CLOUDY    66  54  65 NE5       30.01R
HOPKINSVILLE   NOT AVBL
BOWLING GREEN  CLOUDY    66  60  81 E3        29.98F
GLASGOW        NOT AVBL
$$

KYZ024-025-028>034-038-045-046-053-300200-
NORTH CENTRAL KENTUCKY

CITY           SKY/WX    TMP DP  RH WIND       PRES   REMARKS
LOUISVILLE/SDF CLOUDY    68  49  50 NE6       30.02R
LOUISVILLE/LOU CLOUDY    67  50  54 NE5       30.03R
FORT KNOX      NOT AVBL
$$

KYZ035>037-039>044-047>052-055>060-089>105-300200-
NORTHEAST KENTUCKY

CITY           SKY/WX    TMP DP  RH WIND       PRES   REMARKS
LEXINGTON      CLOUDY    63  50  62 N6        30.04R
COVINGTON      CLOUDY    63  48  58 N7        30.05R
FRANKFORT      CLOUDY    64  52  64 CALM      30.04R
$$

KYZ054-064>069-076>088-106>120-300200-
SOUTHEAST KENTUCKY

CITY           SKY/WX    TMP DP  RH WIND       PRES   REMARKS
JACKSON        PTCLDY    66  51  58 VRB5      30.04R
LONDON         CLOUDY    69  52  54 N7        30.03R
SOMERSET       NOT AVBL
MIDDLESBORO    MOCLDY    67  53  60 CALM      30.02S
MONTICELLO     CLOUDY    68  58  70 N9G21     30.02S
$$





USA.gov is the U.S. government's official web portal to all federal, state and local government web resources and services.